Wetbulb
53.01 52.95 53.34 53.37 53.32 53.50 53.88 54.07 54.29 54.39 54.41 54.58 55.10 55.18 55.11 55.20 54.91 48.21 43.44 49.22 51.76 55.80 54.40 47.47 46.68 45.23 43.99 41.74 41.93 38.64 29.63 26.62 28.72 29.59 30.95 36.04 34.24 37.25 40.87 38.64 43.48 50.45 56.70 59.22 61.35
52.39 52.47 52.80 53.21 53.00 52.99 53.32 53.59 53.83 54.07 54.30 54.45 54.86 54.70 54.69 54.62 49.40 43.97 50.74 54.80 55.40 55.34 47.19 43.81 41.94 42.85 38.68 39.28 39.38 33.49 27.54 28.70 33.70 34.68 34.38 36.28 34.68 35.21 35.10 36.59 42.36 39.97 46.79 55.16 61.62
51.79 52.23 52.62 52.63 52.70 52.98 53.21 53.30 53.64 53.84 54.05 54.27 54.18 54.15 53.94 52.69 43.44 43.30 53.54 54.53 55.41 54.25 48.44 46.41 44.08 41.53 36.49 37.99 36.78 35.43 29.60 35.16 36.78 38.49 38.36 36.53 35.78 36.20 34.26 34.72 38.85 37.73 40.64 45.73 57.41
51.68 52.02 52.11 52.16 52.34 52.78 53.08 53.22 53.47 53.69 53.94 53.86 53.69 53.82 54.14 49.40 32.19 46.22 53.67 55.17 55.47 51.78 48.28 44.34 41.75 36.59 33.93 33.19 37.28 31.66 36.48 37.11 37.98 39.18 37.79 35.37 36.71 35.33 34.02 35.43 41.11 42.17 46.18 45.06 54.83
51.22 51.53 51.74 51.92 52.11 52.55 52.84 53.01 53.14 53.55 53.81 53.33 53.49 53.86 49.42 41.40 40.61 49.43 54.81 52.84 50.90 49.38 44.81 41.98 38.91 36.65 31.67 34.25 35.71 32.77 34.72 37.98 39.06 39.10 38.43 38.64 34.92 34.80 35.25 39.41 41.14 44.80 47.78 55.14 56.19
50.96 51.34 51.40 51.48 52.06 52.24 52.40 52.77 53.17 53.43 53.42 52.47 53.13 53.93 46.31 36.10 47.91 49.84 48.83 50.01 49.88 47.19 44.88 43.85 40.95 40.12 35.98 35.09 33.62 36.23 36.57 36.66 37.96 37.82 38.37 36.18 34.93 35.69 37.09 43.29 41.34 42.85 52.46 54.46 55.16
50.81 51.21 51.16 51.46 51.84 51.98 52.08 52.51 53.39 53.03 51.75 52.19 52.70 50.87 44.76 39.96 47.69 48.26 49.36 48.88 49.98 47.63 44.13 45.54 43.39 39.31 37.57 34.39 39.05 36.88 33.07 34.89 35.81 37.16 35.99 36.78 31.59 34.02 41.29 43.56 39.13 48.24 50.88 53.63 55.61
50.85 50.99 51.12 51.54 51.82 51.56 51.94 52.57 52.12 51.43 52.27 52.50 52.54 47.76 39.65 48.26 45.73 47.86 48.32 48.62 50.21 48.94 47.39 47.08 45.86 41.70 38.40 40.52 38.44 33.91 31.63 26.70 34.68 36.09 37.01 33.96 26.35 36.92 41.89 41.98 43.41 48.26 50.75 52.55 53.85
50.61 50.95 51.05 51.54 51.10 51.30 51.92 52.12 51.52 50.40 53.06 51.80 46.56 42.27 36.81 50.22 44.00 46.32 46.38 45.72 47.45 48.42 46.90 49.02 44.88 39.29 39.95 35.22 30.27 30.70 24.97 23.29 30.55 37.45 35.61 33.96 30.94 38.11 42.15 42.94 44.52 46.83 50.01 51.49 52.63
50.63 50.76 50.86 51.07 50.91 51.26 51.77 51.50 48.48 47.13 49.48 50.91 47.97 38.50 41.17 38.67 42.60 44.76 46.91 47.67 45.13 45.07 43.80 41.72 38.56 33.21 35.95 27.49 23.87 26.41 18.98 27.87 28.47 34.12 35.50 33.74 33.46 38.01 40.72 42.92 43.83 46.88 49.16 50.66 50.92
50.84 50.42 50.80 50.57 50.88 51.30 48.19 41.23 35.61 36.84 37.72 34.08 35.24 36.73 39.07 41.99 44.74 45.03 45.90 44.47 44.97 42.10 34.31 38.15 31.08 27.76 34.08 33.22 32.84 28.06 23.82 27.22 31.09 34.80 34.62 33.25 33.60 36.03 38.99 41.50 42.21 42.88 44.49 45.90 50.58
50.67 50.38 50.40 50.40 50.67 51.06 43.24 37.75 36.79 37.23 31.16 37.99 37.45 38.20 40.72 41.29 38.82 43.00 45.64 40.18 39.37 33.45 35.90 31.07 26.93 33.69 38.35 36.86 33.13 28.14 23.56 27.36 33.46 35.96 34.17 32.93 32.10 35.33 37.13 38.04 40.61 41.63 42.66 44.48 47.53
50.29 49.86 50.08 50.27 50.15 43.37 40.43 39.49 44.25 42.46 32.30 33.96 36.12 37.50 37.95 40.63 37.93 39.25 41.56 39.53 36.22 33.91 32.61 27.76 32.93 37.61 37.47 35.87 34.23 33.52 30.75 31.33 26.67 33.13 34.14 33.10 28.77 31.56 35.72 37.49 39.27 41.67 42.41 44.33 45.57
49.78 49.61 49.77 49.37 43.64 39.49 37.66 43.43 44.34 41.09 23.36 29.98 33.22 37.08 39.32 39.56 36.33 42.17 42.32 39.68 36.84 32.54 33.15 32.53 35.15 34.48 34.43 33.59 34.86 31.17 36.60 35.02 33.06 29.44 25.04 31.25 22.48 29.69 33.38 35.07 36.61 39.49 39.45 40.79 42.76
49.47 49.22 49.17 48.68 39.52 37.20 40.41 43.48 42.00 36.46 15.93 30.46 32.51 40.58 38.87 35.86 36.05 38.03 41.82 39.12 32.25 32.38 31.79 30.40 32.15 31.76 31.09 32.89 33.84 32.87 37.22 34.91 34.54 28.63 25.98 27.66 24.46 28.29 34.23 32.89 34.50 37.38 38.59 38.76 40.39
49.58 48.71 48.11 42.84 39.95 40.27 42.98 40.70 37.06 22.89 15.41 25.65 32.20 32.43 33.22 35.16 34.93 37.47 38.41 39.78 38.11 34.66 33.58 32.30 35.77 33.66 32.64 34.88 34.67 35.98 34.79 33.85 32.07 29.52 19.25 24.10 25.03 25.28 30.00 33.28 35.25 36.80 37.72 38.41 39.16
49.58 47.67 44.15 43.34 37.24 42.04 40.95 34.22 21.54 17.29 25.16 20.65 26.24 30.05 30.05 29.33 31.74 34.02 32.71 28.42 23.57 19.71 18.96 29.08 31.36 34.04 34.83 30.94 34.18 32.55 29.68 20.92 17.09 16.11 18.95 26.43 24.72 24.76 32.35 35.49 35.86 35.26 35.88 37.16 38.08
49.07 46.04 44.64 43.14 41.01 40.70 35.52 25.10 14.83 14.81 15.50 26.96 27.85 28.75 26.67 28.65 29.44 31.21 30.06 24.75 30.16 27.43 18.52 19.57 19.57 30.40 34.37 30.87 29.00 28.80 27.69 20.63 13.51 16.27 19.29 26.20 21.47 25.86 33.71 35.79 36.08 35.99 35.93 36.17 35.69
47.83 40.07 39.56 40.05 41.58 38.81 27.62 14.52 18.34 16.76 25.67 25.83 26.80 22.54 21.43 28.83 27.14 28.32 24.52 24.17 28.44 29.87 22.06 19.93 22.46 32.90 33.14 33.84 32.33 29.12 24.79 28.77 23.40 15.64 18.51 21.07 25.04 30.62 33.62 33.04 32.83 33.56 32.95 32.51 33.05
40.72 37.79 37.56 40.64 38.90 32.39 22.63 21.54 17.82 26.76 28.28 28.03 20.03 22.82 14.22 20.25 23.32 24.15 25.36 27.85 28.89 31.75 31.68 28.10 20.79 28.87 33.19 33.91 33.19 30.97 32.97 23.76 22.57 9.70 11.03 19.90 22.11 22.62 29.18 30.24 30.78 30.32 30.51 31.26 31.39
39.74 31.44 37.24 39.95 36.60 26.62 17.72 14.43 17.97 26.18 29.52 27.19 24.30 17.51 24.30 20.10 19.77 22.37 24.40 27.94 28.43 29.86 31.53 30.38 25.90 25.20 29.48 27.57 26.48 28.45 27.08 27.83 25.73 23.77 18.43 16.05 19.50 28.04 30.53 31.18 29.47 29.62 30.39 30.04 30.36
37.15 25.51 36.26 37.01 22.97 11.37 15.81 17.73 28.90 25.82 29.33 27.22 27.42 25.96 25.11 24.99 22.97 22.33 24.86 26.60 28.77 29.37 28.34 31.57 28.11 22.52 24.46 31.68 33.17 30.61 28.26 28.44 20.69 20.36 21.78 23.33 21.11 32.01 32.39 31.58 30.73 30.02 30.45 29.64 30.14
33.08 32.93 39.11 34.03 18.07 14.79 16.84 17.18 25.27 26.09 26.93 27.40 24.73 27.88 28.75 26.01 20.19 25.32 25.35 30.13 29.64 29.02 28.24 31.09 22.04 11.80 18.99 25.19 29.01 27.81 30.09 30.25 28.21 25.94 22.34 18.12 19.53 32.28 31.36 29.85 29.88 28.88 28.78 29.43 28.63
33.85 27.92 33.28 32.34 26.98 20.90 14.43 14.39 16.20 28.44 28.35 28.93 27.54 28.76 26.48 23.45 21.47 19.66 26.15 28.78 29.62 30.29 34.72 33.38 27.11 21.19 16.24 22.20 24.22 25.10 28.22 29.49 27.79 19.67 22.79 22.73 23.35 27.80 28.92 27.94 27.82 27.89 28.40 28.55 28.93
32.71 31.44 31.95 25.00 22.25 25.52 22.04 20.81 19.44 18.59 27.46 28.89 26.43 27.17 25.41 18.44 20.50 18.96 21.45 26.54 28.24 30.88 29.68 26.66 16.06 19.82 24.91 25.19 24.18 24.60 26.28 27.52 26.97 26.91 22.81 23.36 25.75 29.75 30.74 28.53 27.92 28.01 28.70 28.95 29.10
31.43 31.19 31.98 29.37 28.18 27.08 25.44 20.03 23.57 24.07 24.84 23.65 23.87 25.97 26.39 21.67 24.20 19.73 25.52 24.26 24.48 25.34 26.35 26.91 12.92 14.85 10.86 20.38 21.11 21.51 23.62 23.98 24.83 26.17 26.87 27.61 26.66 31.47 32.24 28.46 26.68 28.50 29.06 28.91 29.38
36.89 36.51 35.49 31.67 29.08 27.40 23.81 24.88 26.65 26.96 27.05 28.35 27.27 25.91 25.76 26.89 28.12 26.61 27.15 27.19 27.42 24.07 19.49 18.55 11.36 6.86 5.85 9.22 10.82 11.59 14.72 22.83 23.31 25.31 27.66 25.70 29.24 30.29 28.33 29.63 28.57 28.56 29.46 29.45 29.87
MSLP
1024.11 1024.03 1023.92 1023.67 1023.55 1023.33 1023.04 1022.77 1022.50 1022.33 1022.07 1021.74 1021.41 1021.07 1020.78 1020.51 1019.90 1019.73 1019.98 1020.25 1019.82 1019.28 1018.92 1018.65 1018.09 1017.80 1017.64 1018.16 1018.32 1018.61 1019.72 1019.79 1019.17 1018.76 1018.36 1017.80 1017.41 1016.34 1015.57 1014.72 1013.34 1012.84 1011.63 1010.89 1009.64
1024.19 1024.12 1024.03 1023.90 1023.66 1023.35 1023.06 1022.72 1022.57 1022.36 1022.18 1021.72 1021.45 1021.12 1020.80 1020.55 1020.52 1020.37 1020.30 1019.93 1019.71 1019.39 1019.34 1019.11 1018.80 1018.60 1019.14 1019.50 1019.43 1019.71 1020.40 1020.19 1019.67 1019.28 1018.88 1018.33 1017.95 1017.29 1016.49 1015.24 1013.85 1013.31 1012.41 1011.53 1011.30
1024.19 1024.28 1024.17 1023.89 1023.68 1023.55 1023.11 1022.77 1022.52 1022.37 1022.18 1021.74 1021.40 1021.17 1020.92 1020.68 1020.65 1020.67 1020.21 1019.98 1019.66 1019.47 1019.53 1019.45 1019.44 1019.42 1019.92 1020.20 1020.67 1020.67 1020.87 1020.75 1019.86 1019.17 1018.93 1018.48 1018.07 1017.71 1017.14 1015.93 1015.06 1014.55 1013.51 1012.47 1012.03
1024.10 1024.19 1024.17 1024.03 1023.64 1023.45 1023.13 1022.80 1022.53 1022.31 1022.04 1021.67 1021.32 1021.10 1020.83 1020.88 1021.11 1020.49 1020.19 1019.92 1019.63 1019.41 1019.67 1019.87 1020.20 1020.66 1020.91 1021.04 1021.15 1021.25 1021.03 1020.69 1019.94 1019.36 1019.02 1018.71 1018.17 1017.74 1017.21 1016.59 1015.33 1014.50 1013.61 1012.29 1011.25
1024.18 1024.03 1024.08 1024.07 1023.67 1023.35 1023.04 1022.72 1022.45 1022.21 1021.95 1021.55 1021.21 1021.04 1020.88 1020.86 1020.87 1020.28 1020.22 1020.09 1019.81 1019.81 1020.09 1020.28 1020.70 1021.21 1021.60 1021.86 1021.57 1021.32 1020.96 1020.06 1019.33 1019.06 1018.89 1018.50 1018.37 1017.90 1017.25 1016.28 1015.41 1014.43 1013.76 1012.17 1011.42
1024.08 1024.06 1024.05 1023.88 1023.65 1023.32 1022.95 1022.63 1022.34 1022.01 1021.84 1021.50 1021.13 1021.02 1020.98 1020.97 1020.51 1020.32 1020.31 1020.20 1020.18 1020.16 1020.34 1020.45 1021.12 1021.41 1021.92 1022.29 1021.85 1021.29 1020.79 1020.13 1019.13 1018.69 1018.48 1018.38 1017.81 1017.79 1017.15 1015.96 1015.02 1014.53 1013.89 1012.86 1012.15
1023.94 1023.96 1024.01 1023.70 1023.43 1023.21 1022.80 1022.41 1022.15 1021.92 1021.72 1021.44 1021.20 1021.16 1021.01 1020.94 1020.61 1020.41 1020.28 1020.21 1020.18 1020.19 1020.45 1020.73 1021.23 1021.62 1021.92 1022.22 1021.88 1021.16 1021.25 1020.47 1019.84 1019.36 1018.90 1018.23 1017.95 1017.84 1017.09 1015.69 1014.92 1014.33 1014.22 1014.00 1013.05
1023.87 1023.80 1023.81 1023.69 1023.31 1022.98 1022.64 1022.17 1021.87 1021.75 1021.63 1021.49 1021.26 1021.24 1020.90 1020.38 1020.51 1020.44 1020.43 1020.33 1020.21 1020.23 1020.39 1020.76 1020.96 1021.52 1021.78 1022.08 1021.83 1022.02 1022.09 1021.86 1021.04 1020.27 1019.34 1018.74 1018.22 1018.07 1016.97 1015.63 1014.76 1014.44 1014.31 1014.67 1013.66
1023.60 1023.76 1023.53 1023.53 1023.22 1022.80 1022.48 1021.94 1021.55 1021.57 1021.45 1021.48 1021.50 1021.35 1020.98 1020.38 1020.64 1020.56 1020.54 1020.48 1020.34 1020.34 1020.53 1020.65 1020.97 1021.59 1021.98 1022.32 1022.12 1022.82 1023.08 1022.77 1021.67 1020.95 1020.24 1019.82 1019.30 1018.89 1017.93 1016.78 1015.66 1014.86 1015.31 1015.42 1014.53
1023.57 1023.50 1023.55 1023.36 1023.02 1022.70 1022.16 1021.76 1021.59 1021.42 1021.46 1021.61 1021.60 1021.86 1021.20 1021.21 1021.02 1020.71 1020.38 1020.39 1020.45 1020.50 1020.79 1021.01 1021.13 1021.57 1022.10 1022.29 1023.28 1023.80 1023.83 1023.48 1022.99 1022.18 1021.25 1020.83 1020.33 1019.67 1018.69 1017.63 1017.21 1016.79 1016.98 1016.17 1014.69
1023.69 1023.41 1023.46 1023.24 1022.93 1022.53 1022.26 1022.04 1022.44 1022.29 1022.01 1022.19 1022.17 1021.87 1021.69 1021.47 1021.11 1020.76 1020.46 1020.41 1020.47 1020.70 1021.01 1021.07 1021.43 1021.82 1022.60 1022.85 1022.97 1023.15 1023.76 1023.63 1023.16 1022.27 1021.97 1021.83 1021.12 1020.60 1019.75 1018.27 1018.07 1017.97 1017.24 1016.94 1016.51
1023.56 1023.52 1023.40 1023.12 1022.83 1022.46 1022.59 1023.22 1023.54 1023.69 1023.06 1022.43 1022.19 1021.96 1021.75 1021.80 1021.51 1020.98 1020.68 1020.82 1020.74 1021.00 1021.04 1021.51 1021.40 1021.53 1022.16 1022.61 1022.67 1022.66 1022.89 1023.58 1023.12 1022.49 1022.49 1021.86 1021.73 1021.06 1020.24 1020.32 1020.07 1019.36 1019.20 1018.83 1018.01
1023.39 1023.39 1023.42 1023.11 1022.79 1022.84 1023.56 1023.98 1023.83 1023.75 1023.47 1022.80 1022.35 1022.02 1022.00 1021.95 1021.84 1021.50 1021.31 1021.23 1021.22 1021.24 1021.51 1021.48 1021.36 1021.00 1021.57 1022.17 1022.17 1022.45 1022.26 1022.41 1022.96 1022.89 1022.71 1021.99 1021.57 1021.36 1021.48 1021.22 1020.56 1020.43 1019.96 1019.68 1019.22
1023.47 1023.29 1023.38 1023.10 1023.18 1023.38 1023.97 1024.11 1024.02 1023.92 1024.13 1023.34 1022.49 1022.16 1021.98 1021.84 1021.80 1021.46 1021.48 1021.68 1021.40 1021.52 1021.39 1021.24 1020.89 1020.79 1021.13 1021.47 1021.88 1021.69 1021.23 1021.53 1022.10 1022.43 1022.69 1022.19 1022.18 1021.78 1021.79 1021.86 1021.92 1021.42 1020.59 1020.67 1020.34
1023.40 1023.39 1023.39 1023.22 1023.60 1023.89 1024.37 1024.01 1024.01 1024.35 1024.73 1023.74 1022.49 1022.01 1022.03 1022.13 1022.00 1021.59 1021.61 1021.68 1021.91 1021.89 1022.02 1021.28 1020.74 1020.53 1020.54 1020.74 1021.11 1021.13 1020.86 1020.83 1021.26 1022.30 1022.60 1022.51 1022.80 1023.35 1022.94 1022.10 1021.79 1022.12 1022.33 1022.01 1021.59
1023.36 1023.46 1023.41 1023.54 1023.99 1024.28 1024.02 1024.09 1024.32 1024.88 1024.98 1024.04 1023.03 1022.68 1022.68 1022.54 1022.40 1022.07 1022.11 1022.12 1022.41 1022.32 1022.15 1021.66 1020.62 1020.57 1020.36 1020.01 1020.33 1020.56 1021.14 1021.30 1021.47 1022.18 1023.29 1023.84 1023.79 1024.14 1023.77 1024.02 1023.86 1023.48 1022.68 1022.36 1021.81
1023.36 1023.44 1023.53 1023.79 1024.38 1024.17 1024.15 1024.44 1025.50 1025.56 1025.86 1025.13 1024.05 1023.63 1023.68 1023.62 1023.36 1023.19 1023.28 1023.45 1023.79 1023.69 1023.77 1022.53 1021.27 1020.70 1020.38 1020.26 1020.12 1020.47 1021.08 1021.97 1022.66 1023.17 1023.92 1023.58 1023.89 1024.38 1024.21 1024.29 1024.27 1023.97 1023.64 1023.09 1022.50
1023.43 1023.52 1023.94 1024.13 1024.36 1024.26 1024.73 1025.14 1026.41 1026.56 1026.03 1025.38 1024.89 1024.63 1024.57 1024.47 1024.26 1024.20 1024.25 1024.66 1024.39 1024.55 1024.76 1024.25 1022.45 1021.36 1020.94 1020.93 1021.20 1021.19 1021.58 1022.20 1023.09 1023.91 1024.32 1023.84 1024.24 1024.28 1024.26 1024.27 1024.14 1024.02 1023.57 1023.21 1023.27
1023.47 1024.14 1024.32 1024.59 1024.22 1024.57 1025.42 1026.64 1026.41 1026.48 1025.81 1025.65 1025.61 1025.81 1025.72 1025.40 1025.50 1025.27 1025.41 1025.37 1024.95 1024.94 1025.01 1024.72 1023.27 1021.95 1021.39 1021.08 1021.28 1021.08 1021.59 1022.05 1022.98 1024.38 1024.49 1024.83 1024.48 1024.25 1024.34 1024.47 1024.63 1024.69 1024.56 1024.56 1024.39
1023.64 1024.48 1024.81 1024.75 1024.49 1024.85 1026.17 1027.03 1027.01 1026.13 1025.61 1025.48 1026.05 1026.25 1026.92 1026.46 1026.35 1026.24 1025.95 1025.45 1025.04 1024.87 1024.84 1024.88 1024.30 1022.78 1021.99 1021.60 1021.49 1021.24 1021.50 1021.94 1022.76 1024.19 1024.63 1024.48 1024.29 1024.07 1024.32 1024.68 1025.02 1025.14 1025.21 1025.12 1025.01
1023.47 1024.79 1025.04 1024.85 1024.92 1025.39 1027.50 1027.75 1027.14 1026.48 1025.90 1025.83 1026.06 1026.75 1026.52 1026.82 1027.04 1026.96 1026.28 1026.00 1025.44 1025.18 1025.00 1024.97 1025.11 1023.92 1023.02 1022.89 1022.73 1022.24 1021.91 1022.09 1022.78 1023.26 1023.85 1024.41 1023.55 1022.72 1023.33 1024.18 1024.98 1025.32 1025.42 1025.53 1025.76
1023.53 1024.97 1025.12 1025.16 1026.21 1027.12 1028.33 1027.77 1026.95 1026.54 1026.23 1026.01 1025.97 1026.08 1026.43 1026.85 1027.22 1027.14 1026.43 1025.93 1025.61 1025.59 1025.48 1025.34 1025.65 1025.30 1024.31 1023.43 1022.97 1022.86 1022.79 1022.46 1023.10 1023.60 1023.52 1023.78 1023.24 1022.53 1022.99 1023.77 1024.45 1025.29 1025.53 1025.66 1025.69
1023.66 1024.82 1025.13 1025.41 1026.44 1027.83 1028.09 1028.15 1027.73 1026.90 1026.35 1026.06 1026.08 1026.13 1026.20 1026.62 1027.44 1026.96 1026.58 1025.91 1025.65 1025.66 1026.00 1026.01 1026.41 1026.25 1025.22 1024.77 1023.87 1023.38 1023.11 1022.93 1023.00 1023.58 1023.46 1023.80 1023.59 1023.45 1023.72 1024.16 1024.67 1025.08 1025.69 1026.12 1026.32
1023.37 1024.59 1025.42 1025.75 1026.69 1027.01 1027.86 1028.03 1027.71 1026.84 1026.31 1026.03 1025.90 1026.08 1026.34 1026.94 1027.37 1027.26 1026.92 1026.54 1026.22 1026.06 1026.09 1026.70 1027.30 1027.61 1026.96 1026.00 1025.30 1024.38 1023.61 1023.31 1023.31 1023.83 1023.36 1023.02 1023.38 1023.99 1024.25 1024.36 1024.91 1025.54 1025.86 1026.14 1026.42
1022.40 1023.08 1023.49 1025.34 1026.02 1026.28 1026.47 1026.59 1027.03 1026.87 1026.35 1026.08 1026.12 1025.78 1026.07 1027.03 1027.43 1027.39 1027.35 1026.86 1026.73 1026.72 1026.94 1027.72 1028.74 1028.85 1027.92 1027.04 1026.29 1025.44 1024.57 1023.97 1023.63 1023.23 1023.46 1022.90 1022.81 1022.79 1023.28 1024.09 1024.76 1025.27 1025.83 1026.44 1026.62
1021.24 1022.10 1023.41 1023.68 1024.19 1025.21 1025.57 1025.68 1025.32 1025.62 1025.66 1025.86 1025.74 1025.26 1025.87 1025.95 1026.09 1026.41 1026.63 1027.09 1026.83 1027.59 1028.04 1028.73 1030.09 1030.63 1029.85 1028.68 1027.63 1026.12 1024.85 1024.32 1023.77 1023.28 1022.78 1022.73 1022.66 1021.84 1022.62 1024.08 1024.81 1025.24 1025.64 1026.18 1026.47
1019.73 1020.02 1020.53 1022.60 1023.63 1023.94 1024.08 1023.67 1023.49 1023.78 1024.47 1024.36 1024.43 1025.17 1025.68 1025.17 1025.62 1026.10 1026.35 1026.67 1026.97 1027.71 1029.19 1030.05 1031.27 1032.79 1032.13 1030.24 1028.47 1026.46 1023.52 1022.99 1022.78 1022.11 1021.69 1022.00 1021.60 1021.97 1022.92 1023.58 1023.98 1024.59 1024.89 1025.53 1026.11
Wind_Speed
7 8 9 9 10 11 12 13 13 14 14 14 15 14 14 15 12 4 7 5 8 12 13 8 8 11 4 5 5 3 4 3 4 6 8 6 9 5 9 6 7 14 9 10 12
7 8 9 10 10 11 12 13 14 14 14 14 15 14 12 12 3 6 4 8 9 10 6 8 12 8 5 6 5 5 3 2 2 4 7 7 6 8 8 17 6 15 19 12 4
6 8 9 10 11 12 12 13 13 14 14 14 15 13 10 6 2 3 6 7 9 8 5 5 5 4 6 5 5 5 1 5 6 7 8 7 8 5 7 7 7 17 19 16 4
5 7 9 11 11 12 13 14 14 14 13 14 13 11 10 1 2 2 5 9 10 8 3 5 6 4 3 3 3 3 4 5 6 6 8 7 7 10 2 7 16 14 20 17 6
4 6 8 11 12 13 14 14 14 14 13 12 10 9 3 4 2 3 5 7 4 5 4 4 5 3 3 3 2 3 4 10 11 11 9 8 7 6 8 11 12 9 20 16 8
4 6 8 10 12 13 14 15 16 15 14 10 8 7 2 4 1 4 4 1 4 4 5 6 4 2 3 3 3 4 8 12 10 11 6 8 7 3 8 17 11 6 11 14 2
4 6 9 10 11 13 14 15 16 15 10 6 6 2 2 3 1 3 4 1 1 1 2 3 3 6 3 2 6 4 9 10 6 6 4 4 5 1 17 15 5 7 9 12 7
4 6 9 11 12 13 15 14 14 10 7 5 3 1 2 1 2 3 4 1 2 2 3 5 4 2 3 5 3 6 4 6 9 11 5 3 8 15 19 9 5 8 10 8 7
3 6 8 11 13 14 16 15 9 5 4 1 2 1 1 1 2 5 1 3 4 2 1 3 2 2 1 2 3 6 1 6 8 14 6 8 9 16 16 12 13 11 8 10 7
3 5 9 11 13 15 16 12 3 4 1 1 2 3 4 4 4 5 3 2 2 3 1 1 2 3 4 3 5 2 4 4 7 7 9 10 13 14 16 15 15 9 6 5 11
4 5 9 11 14 15 8 4 5 4 7 3 2 1 3 7 3 1 3 3 1 1 2 3 6 7 5 3 8 7 4 5 3 6 5 12 14 15 14 19 17 14 13 16 11
4 5 8 11 13 15 4 5 1 1 3 1 1 0 1 1 4 4 6 3 3 3 4 6 3 2 8 6 7 4 6 3 4 2 4 4 12 12 17 16 13 14 12 12 12
3 4 8 10 12 5 4 2 2 1 3 1 1 1 2 3 1 5 4 2 2 5 4 3 2 6 4 4 7 1 3 4 5 6 2 5 5 16 12 13 16 15 13 12 11
3 4 8 13 3 0 3 4 4 2 6 4 1 0 0 1 1 2 0 1 2 3 4 3 1 3 5 3 1 2 4 5 3 2 5 5 2 15 15 12 14 14 16 13 14
3 3 6 7 2 3 1 3 2 4 4 1 2 2 2 1 1 3 1 1 1 3 3 4 6 4 2 3 2 5 5 6 5 3 3 8 5 9 6 13 16 16 13 10 11
3 1 5 3 3 0 1 2 3 9 4 3 3 4 1 4 2 4 3 4 1 2 2 5 2 1 3 6 6 3 2 5 3 3 5 6 2 6 7 6 6 10 13 12 10
5 3 3 2 1 3 1 3 8 6 5 6 0 3 1 4 4 5 3 6 2 5 4 7 4 5 3 4 2 7 3 3 5 6 3 5 5 3 2 4 5 6 7 9 11
7 5 5 2 2 2 2 8 6 3 5 3 1 0 3 3 1 3 3 2 3 3 4 2 7 4 4 3 2 2 1 4 3 2 1 5 3 1 4 3 3 4 7 10 10
9 2 2 2 3 3 6 6 9 8 4 6 2 5 5 2 0 3 1 3 1 1 4 3 6 5 2 1 2 3 5 1 4 3 5 2 2 2 4 3 4 4 5 6 7
3 2 1 5 3 4 7 5 3 4 4 3 6 3 4 3 2 2 3 3 2 1 1 3 3 2 4 3 2 0 2 3 3 3 0 2 3 5 7 5 2 3 4 5 6
4 3 2 4 1 6 4 7 4 3 1 3 4 2 4 3 4 2 2 1 1 1 1 1 3 6 3 3 1 6 2 3 3 3 4 3 6 6 10 8 7 5 4 5 5
3 1 3 3 5 1 3 5 1 3 1 1 2 3 4 4 3 2 4 1 2 1 2 0 2 3 3 4 2 2 3 2 5 3 1 1 6 2 8 9 9 7 5 4 5
4 2 1 4 4 2 3 3 2 3 4 5 4 1 1 4 1 3 3 2 2 1 1 1 2 4 9 6 4 2 3 2 3 3 4 6 5 3 5 7 6 9 6 4 4
4 4 2 3 1 6 5 3 2 2 2 2 3 3 3 1 2 3 3 1 1 1 2 1 2 5 6 3 1 4 2 3 4 3 2 5 5 5 7 9 7 6 6 7 6
2 4 4 5 5 4 3 5 5 4 3 4 1 6 6 4 1 4 2 1 1 2 2 4 3 1 4 3 2 4 5 4 6 5 5 2 9 14 15 11 10 7 7 6 5
8 6 1 4 4 9 7 8 11 5 9 6 6 7 7 7 7 8 7 4 5 2 4 1 3 2 5 4 3 6 9 8 6 5 7 5 7 7 9 7 7 9 9 8 7
3 1 5 9 6 7 7 8 12 10 6 3 9 6 7 8 5 1 3 2 4 8 5 4 5 4 7 4 6 9 11 14 6 7 8 9 9 6 7 12 14 11 10 9 7
Wind_Direction
8 6 6 10 3 358 356 351 350 350 349 348 345 344 345 347 337 30 35 332 339 339 333 322 351 350 20 38 10 54 50 300 321 22 302 339 348 324 299 325 311 352 357 329 117
3 2 359 357 357 353 351 348 344 344 343 344 339 335 339 344 352 48 311 350 343 340 343 351 360 7 42 6 18 72 80 288 18 309 311 316 340 328 360 328 341 336 333 354 329
3 356 351 354 354 346 345 341 339 339 341 342 338 338 337 341 68 346 311 343 337 342 340 333 10 47 47 16 360 342 143 329 319 319 334 311 316 316 340 318 341 317 304 301 228
7 355 352 347 350 342 339 335 335 337 338 339 337 342 331 257 86 309 303 352 348 329 331 25 12 33 67 52 2 35 322 306 277 321 316 316 301 313 205 290 290 306 304 278 267
353 358 349 341 342 338 334 330 330 331 330 333 332 346 5 49 58 265 322 350 0 17 42 53 45 23 59 328 270 133 281 306 295 298 300 313 297 274 287 285 300 338 311 315 164
346 349 341 340 336 333 330 327 325 325 326 325 333 346 23 67 260 336 353 4 9 25 38 50 16 91 79 300 342 304 300 294 300 305 298 291 285 22 291 318 291 307 328 348 29
338 339 336 333 331 328 327 325 324 325 329 326 339 11 46 130 12 328 9 215 226 59 65 71 82 40 5 290 310 343 359 344 337 334 293 324 326 28 329 326 285 29 2 325 343
319 333 330 329 328 327 324 324 324 325 328 322 346 36 91 222 217 341 359 333 274 215 125 151 123 44 75 314 282 31 48 354 351 353 336 23 302 353 344 352 47 70 41 311 336
301 322 330 327 326 326 324 320 315 316 341 324 16 34 57 120 3 302 6 297 301 290 238 144 107 90 168 283 56 24 26 3 328 1 345 8 340 357 352 6 36 49 22 349 308
282 322 326 326 328 328 327 321 310 351 354 261 286 49 354 317 302 318 295 273 301 326 86 336 56 47 23 61 81 344 7 16 356 333 25 30 29 12 7 33 48 48 43 21 8
280 321 325 328 329 332 346 9 25 6 45 99 144 147 308 302 261 274 319 333 281 30 338 277 52 24 53 11 127 129 68 75 325 275 66 37 29 22 9 34 30 24 19 360 28
267 314 324 330 332 335 72 71 58 182 92 51 240 57 292 15 344 323 359 23 11 331 13 12 51 39 120 159 110 101 111 33 310 49 337 7 25 28 21 22 20 23 34 9 11
240 312 324 329 330 41 63 60 1 14 93 41 95 109 281 15 355 304 21 338 9 349 26 133 267 119 120 133 92 74 143 175 237 328 261 284 343 17 17 26 19 23 21 23 11
233 321 329 329 53 108 64 333 1 43 76 320 28 333 182 112 298 259 44 38 325 309 345 250 339 56 175 176 120 255 234 148 231 342 358 321 354 14 349 7 27 19 20 10 11
211 321 336 17 188 61 253 345 13 54 53 258 309 149 269 144 283 9 53 345 360 314 51 264 343 24 6 162 156 238 205 169 144 23 49 359 39 329 342 0 4 7 11 20 12
179 343 352 47 49 315 356 43 57 47 267 354 337 358 39 14 358 318 20 26 55 354 324 268 293 137 230 298 177 334 106 315 41 35 36 316 38 353 2 346 346 356 11 16 20
157 91 74 67 163 301 80 58 41 117 352 291 322 37 70 359 352 21 46 12 99 60 341 331 317 327 46 349 45 26 92 10 13 33 204 335 59 264 24 41 4 12 20 25 29
150 96 37 78 326 8 30 52 80 235 221 284 348 8 107 13 2 355 86 25 20 64 88 123 322 360 352 107 235 318 93 150 173 143 204 353 59 279 144 116 86 20 22 31 37
130 26 56 338 359 72 69 68 198 195 173 152 57 61 325 17 322 40 74 191 192 16 160 114 288 316 306 305 149 339 53 281 101 31 70 322 9 7 155 94 57 40 51 24 24
103 88 357 321 357 67 75 244 184 207 147 149 162 150 189 255 67 71 199 246 210 203 158 191 336 278 302 348 348 92 223 60 357 90 10 242 227 223 199 188 131 44 42 39 30
83 66 302 341 14 54 154 218 229 250 67 154 188 147 208 177 165 232 227 289 268 249 6 132 114 288 31 16 296 344 17 62 119 128 147 165 255 208 183 170 161 148 109 77 55
123 98 302 3 57 22 151 201 227 168 99 91 112 136 180 168 158 213 211 203 322 338 187 327 140 266 219 294 180 185 264 128 115 248 159 167 266 298 162 159 152 159 133 111 91
111 108 18 73 148 246 308 304 247 130 194 158 179 159 176 174 16 183 227 214 107 117 196 329 318 3 349 355 351 249 227 199 118 63 223 135 263 33 123 146 166 147 145 131 105
124 123 17 56 203 139 141 235 236 275 197 176 147 134 107 138 18 223 226 239 154 132 113 343 183 178 194 207 258 286 235 218 127 122 219 218 162 219 206 172 169 161 163 159 150
137 200 174 183 243 176 135 131 143 198 253 195 311 213 162 144 45 236 292 144 235 226 123 123 205 288 259 257 269 260 260 246 209 208 184 239 187 203 198 185 175 168 155 153 156
139 147 216 147 137 149 185 218 170 173 154 233 207 197 181 165 187 198 156 189 197 179 168 92 253 94 298 339 346 268 252 235 237 249 259 249 260 211 157 126 151 172 165 172 174
178 69 130 153 149 140 210 201 193 143 226 204 187 124 192 211 180 305 103 107 167 157 170 137 127 75 273 344 330 315 223 205 185 202 170 205 220 144 147 175 180 181 175 173 177